Погода в Куземе

Россия / Республика Карелия     65°21′23″N   34°15′26″E
темп.,
°C
ветер,
м/с
пор.,
м/с
влажн.,
%
обл.,
%
осадки,
мм/ч
давл.,
гПа
погр.,
м
10 мая, пн
пн1000:00+3юз59790 0.0 1013145
03:00+2юз59825 0.0 1015139
06:00+3юз497699 0.0 1015254
09:00+7юз71069100 0.0 1016639
12:00+10юз8105298 0.3 10171770
15:00+10ююз7105498 0.3 10161532
18:00+8юз7977100 0.1 10161160
21:00+7юз5889100 0.3 1016734
11 мая, вт
вт1100:00+6юз4790100 0.0 1016410
03:00+6зюз2494100 0.4 1017159
06:00+6вюв1194100 0.3 101840
09:00+7вюв2394100 0.4 1019174
12:00+8юв5694100 0.0 1018274
15:00+16юз61277100 0.0 10171079
18:00+17зюз81477100 0.1 1018857
21:00+16юз71283100 0.1 1018324
12 мая, ср
ср1200:00+13юз71287100 0.0 1020266
03:00+12зюз5991100 0.0 1021174
06:00+12зюз369037 0.0 1022199
09:00+16зюз467455 0.0 1022594
12:00+20юз58505 0.0 10221327
15:00+22юз67438 0.0 10221623
18:00+22юз684490 0.0 10211289
21:00+18зюз33596 0.0 102229
13 мая, чт
чт1300:00+15юз446482 0.0 102337
03:00+13юз447058 0.0 102336
06:00+15юз247118 0.0 1022124
09:00+19ююз45515 0.0 1021545
12:00+22ююз57412 0.0 10201400
15:00+24юз67331 0.0 10191709
18:00+23зюз57371 0.0 10181862
21:00+20зюз33539 0.0 101717
14 мая, пт
пт1400:00+17юз336421 0.0 101726
03:00+15зсз227157 0.0 101711
06:00+17сз116683 0.0 101634
09:00+19юв226052 0.0 1016393
12:00+19всв316010 0.0 1015437
15:00+17всв456725 1.9 1015215
18:00+14всв337887 1.5 1015159
21:00+11всв458522 1.6 1014100